| time (UTC) | temp F | wind direction | speed MPH | gust MPH | rain 1hr in | rain 24hr in | rain mn in | humidity % | barometer mb |
| 20260508170004 | 56 | 246 | 2.0 | 5.0 | 0.00 | 0.07 | 0.04 | 62 | 1017.5 |
| 20260508165003 | 55 | 308 | 2.0 | 7.0 | 0.00 | 0.07 | 0.04 | 64 | 1017.6 |
| 20260508164003 | 55 | 218 | 2.0 | 6.0 | 0.00 | 0.07 | 0.04 | 63 | 1017.7 |
| 20260508163004 | 55 | 286 | 2.0 | 7.0 | 0.00 | 0.07 | 0.04 | 65 | 1017.8 |
| 20260508161003 | 54 | 126 | 2.0 | 5.0 | 0.00 | 0.07 | 0.04 | 69 | 1018.1 |
| 20260508160003 | 53 | 272 | 2.0 | 5.0 | 0.00 | 0.07 | 0.04 | 75 | 1018.2 |
| 20260508155003 | 52 | 213 | 3.0 | 8.0 | 0.00 | 0.07 | 0.04 | 72 | 1018.3 |
| 20260508154003 | 52 | 224 | 3.0 | 6.0 | 0.00 | 0.07 | 0.04 | 76 | 1018.4 |
| 20260508153004 | 52 | 131 | 2.0 | 5.0 | 0.00 | 0.07 | 0.04 | 77 | 1018.3 |
| 20260508152003 | 51 | 235 | 2.0 | 3.0 | 0.00 | 0.07 | 0.04 | 75 | 1018.5 |
| 20260508151003 | 50 | 212 | 2.0 | 8.0 | 0.00 | 0.07 | 0.04 | 79 | 1018.3 |
| 20260508150004 | 49 | 210 | 2.0 | 5.0 | 0.00 | 0.07 | 0.04 | 80 | 1018.4 |
| 20260508145003 | 49 | 255 | 2.0 | 3.0 | 0.00 | 0.07 | 0.04 | 78 | 1018.4 |
| 20260508141003 | 46 | 129 | 1.0 | 3.0 | 0.00 | 0.07 | 0.04 | 92 | 1018.2 |
| 20260508140003 | 45 | 242 | 0.0 | 3.0 | 0.00 | 0.07 | 0.04 | 92 | 1018.1 |
| 20260508135004 | 44 | 326 | 1.0 | 2.0 | 0.00 | 0.07 | 0.04 | 93 | 1018.3 |
| 20260508134003 | 43 | 135 | 1.0 | 3.0 | 0.00 | 0.07 | 0.04 | 94 | 1018.4 |
| 20260508132003 | 43 | 217 | 1.0 | 3.0 | 0.00 | 0.07 | 0.04 | 95 | 1018.4 |
| 20260508131003 | 42 | 195 | 1.0 | 3.0 | 0.00 | 0.07 | 0.04 | 96 | 1018.4 |
| 20260508130003 | 42 | 248 | 1.0 | 3.0 | 0.01 | 0.07 | 0.04 | 97 | 1018.5 |
| 20260508124004 | 42 | 348 | 0.0 | 0.0 | 0.02 | 0.07 | 0.04 | 98 | 1018.4 |
| 20260508123004 | 42 | 348 | 0.0 | 1.0 | 0.02 | 0.07 | 0.04 | 98 | 1018.5 |
| 20260508122005 | 42 | 353 | 0.0 | 3.0 | 0.03 | 0.07 | 0.04 | 98 | 1018.5 |
| 20260508121005 | 41 | 260 | 0.0 | 0.0 | 0.03 | 0.07 | 0.04 | 98 | 1018.4 |
| 20260508120005 | 41 | 260 | 1.0 | 2.0 | 0.02 | 0.06 | 0.03 | 98 | 1018.3 |
| 20260508115006 | 41 | 260 | 0.0 | 1.0 | 0.02 | 0.06 | 0.03 | 97 | 1018.2 |
| 20260508114006 | 41 | 260 | 1.0 | 3.0 | 0.01 | 0.05 | 0.02 | 98 | 1018.2 |
| 20260508113006 | 42 | 224 | 0.0 | 2.0 | 0.01 | 0.05 | 0.02 | 98 | 1018.2 |
| 20260508112006 | 42 | 245 | 0.0 | 3.0 | 0.00 | 0.04 | 0.01 | 98 | 1018.0 |
| 20260508111005 | 41 | 261 | 0.0 | 2.0 | 0.00 | 0.04 | 0.01 | 98 | 1017.8 |
| 20260508105006 | 41 | 229 | 0.0 | 0.0 | 0.00 | 0.04 | 0.01 | 98 | 1017.4 |
| 20260508104006 | 41 | 229 | 0.0 | 0.0 | 0.00 | 0.04 | 0.01 | 98 | 1017.1 |
| 20260508103006 | 41 | 229 | 0.0 | 0.0 | 0.00 | 0.04 | 0.01 | 98 | 1016.9 |
| 20260508101006 | 40 | 229 | 1.0 | 2.0 | 0.00 | 0.04 | 0.01 | 98 | 1016.8 |
| 20260508100006 | 40 | 229 | 0.0 | 0.0 | 0.00 | 0.04 | 0.01 | 98 | 1016.8 |
| 20260508095005 | 40 | 229 | 0.0 | 0.0 | 0.01 | 0.04 | 0.01 | 98 | 1016.8 |
| 20260508094006 | 40 | 229 | 0.0 | 0.0 | 0.01 | 0.04 | 0.01 | 98 | 1016.8 |
| 20260508093006 | 39 | 229 | 0.0 | 0.0 | 0.01 | 0.04 | 0.01 | 97 | 1016.9 |
| 20260508092005 | 39 | 229 | 0.0 | 0.0 | 0.01 | 0.04 | 0.01 | 98 | 1017.0 |
| 20260508091006 | 39 | 229 | 0.0 | 0.0 | 0.01 | 0.04 | 0.01 | 98 | 1017.2 |
| 20260508090005 | 38 | 229 | 0.0 | 0.0 | 0.01 | 0.04 | 0.01 | 97 | 1017.2 |
| 20260508085006 | 38 | 229 | 0.0 | 0.0 | 0.00 | 0.03 | 0.00 | 97 | 1017.2 |
| 20260508084006 | 38 | 229 | 0.0 | 0.0 | 0.00 | 0.03 | 0.00 | 97 | 1017.3 |
| 20260508083006 | 38 | 229 | 0.0 | 0.0 | 0.00 | 0.03 | 0.00 | 97 | 1017.2 |
| 20260508081007 | 38 | 229 | 0.0 | 0.0 | 0.00 | 0.03 | 0.00 | 97 | 1017.2 |
| 20260508080006 | 38 | 229 | 0.0 | 0.0 | 0.00 | 0.03 | 0.00 | 97 | 1017.2 |
| 20260508075006 | 38 | 229 | 0.0 | 0.0 | 0.00 | 0.03 | 0.00 | 96 | 1017.1 |
| 20260508074006 | 38 | 229 | 0.0 | 0.0 | 0.00 | 0.03 | 0.00 | 96 | 1017.1 |
| 20260508072007 | 38 | 229 | 0.0 | 0.0 | 0.00 | 0.03 | 0.00 | 96 | 1017.3 |
| 20260508071006 | 38 | 229 | 0.0 | 0.0 | 0.00 | 0.03 | 0.00 | 96 | 1017.3 |
| 20260508070006 | 38 | 229 | 0.0 | 0.0 | 0.00 | 0.03 | 0.00 | 96 | 1017.3 |
| 20260508065006 | 39 | 229 | 0.0 | 0.0 | 0.00 | 0.03 | 0.00 | 95 | 1017.2 |
| 20260508063006 | 39 | 229 | 0.0 | 0.0 | 0.00 | 0.03 | 0.00 | 95 | 1017.3 |
| 20260508062005 | 39 | 229 | 0.0 | 0.0 | 0.00 | 0.03 | 0.00 | 95 | 1017.4 |
| 20260508060006 | 40 | 229 | 0.0 | 0.0 | 0.00 | 0.03 | 0.00 | 95 | 1017.1 |
| 20260508055006 | 40 | 229 | 0.0 | 0.0 | 0.00 | 0.03 | 0.00 | 95 | 1017.5 |
| 20260508054005 | 40 | 229 | 0.0 | 0.0 | 0.00 | 0.03 | 0.00 | 95 | 1017.6 |
| 20260508053006 | 41 | 229 | 0.0 | 0.0 | 0.00 | 0.03 | 0.00 | 95 | 1017.6 |
| 20260508052006 | 41 | 229 | 1.0 | 2.0 | 0.00 | 0.03 | 0.00 | 95 | 1017.7 |
| 20260508051008 | 41 | 229 | 0.0 | 1.0 | 0.00 | 0.03 | 0.00 | 95 | 1017.8 |
| 20260508050006 | 42 | 229 | 0.0 | 1.0 | 0.00 | 0.03 | 0.00 | 95 | 1017.7 |
| 20260508044006 | 42 | 229 | 1.0 | 1.0 | 0.00 | 0.03 | 0.00 | 95 | 1017.5 |
| 20260508043006 | 42 | 218 | 0.0 | 2.0 | 0.00 | 0.03 | 0.00 | 95 | 1017.5 |
| 20260508042006 | 43 | 218 | 0.0 | 1.0 | 0.00 | 0.03 | 0.00 | 95 | 1017.6 |
| 20260508041006 | 43 | 218 | 0.0 | 2.0 | 0.00 | 0.03 | 0.00 | 95 | 1017.5 |
| 20260508040007 | 43 | 179 | 0.0 | 1.0 | 0.00 | 0.03 | 0.00 | 95 | 1017.4 |
| 20260508035006 | 43 | 179 | 0.0 | 1.0 | 0.00 | 0.03 | 0.03 | 95 | 1017.7 |
| 20260508034006 | 43 | 179 | 1.0 | 1.0 | 0.00 | 0.03 | 0.03 | 94 | 1017.6 |
| 20260508033006 | 43 | 179 | 0.0 | 0.0 | 0.00 | 0.03 | 0.03 | 94 | 1017.5 |
| 20260508032008 | 43 | 179 | 0.0 | 0.0 | 0.01 | 0.03 | 0.03 | 94 | 1017.5 |
| 20260508030003 | 44 | 179 | 0.0 | 0.0 | 0.02 | 0.03 | 0.03 | 94 | 1017.6 |
| 20260508025003 | 44 | 179 | 0.0 | 2.0 | 0.02 | 0.03 | 0.03 | 93 | 1017.5 |
| 20260508023003 | 45 | 156 | 0.0 | 2.0 | 0.02 | 0.03 | 0.03 | 93 | 1017.5 |
| 20260508022003 | 45 | 241 | 0.0 | 2.0 | 0.01 | 0.02 | 0.02 | 93 | 1017.7 |
| 20260508021003 | 45 | 256 | 0.0 | 1.0 | 0.01 | 0.02 | 0.02 | 93 | 1017.7 |
| 20260508015003 | 45 | 186 | 1.0 | 2.0 | 0.00 | 0.01 | 0.01 | 91 | 1017.4 |
| 20260508014004 | 45 | 186 | 0.0 | 2.0 | 0.00 | 0.01 | 0.01 | 90 | 1017.3 |
| 20260508013005 | 45 | 173 | 0.0 | 0.0 | 0.00 | 0.01 | 0.01 | 90 | 1017.2 |
| 20260508012004 | 45 | 172 | 0.0 | 0.0 | 0.01 | 0.01 | 0.01 | 89 | 1017.1 |
| 20260508011003 | 45 | 172 | 0.0 | 0.0 | 0.01 | 0.01 | 0.01 | 88 | 1017.1 |
| 20260508010004 | 45 | 172 | 0.0 | 2.0 | 0.01 | 0.01 | 0.01 | 87 | 1017.1 |
| 20260508005002 | 45 | 309 | 0.0 | 2.0 | 0.01 | 0.01 | 0.01 | 86 | 1017.1 |
| 20260508003002 | 46 | 195 | 0.0 | 2.0 | 0.01 | 0.01 | 0.01 | 82 | 1017.1 |
| 20260508002002 | 47 | 195 | 0.0 | 2.0 | 0.00 | 0.00 | 0.00 | 80 | 1016.9 |
| 20260508001002 | 47 | 107 | 0.0 | 0.0 | 0.00 | 0.00 | 0.00 | 77 | 1016.6 |
| 20260508000002 | 47 | 107 | 0.0 | 0.0 | 0.00 | 0.00 | 0.00 | 76 | 1016.6 |
| 20260507234003 | 48 | 25 | 0.0 | 1.0 | 0.00 | 0.00 | 0.00 | 74 | 1016.3 |
| 20260507233003 | 48 | 25 | 0.0 | 3.0 | 0.00 | 0.00 | 0.00 | 74 | 1016.1 |
| 20260507232002 | 49 | 14 | 1.0 | 5.0 | 0.00 | 0.00 | 0.00 | 70 | 1016.0 |
| 20260507231002 | 49 | 4 | 3.0 | 6.0 | 0.00 | 0.00 | 0.00 | 69 | 1016.2 |
| 20260507230002 | 51 | 358 | 4.0 | 8.0 | 0.00 | 0.00 | 0.00 | 69 | 1016.1 |
| 20260507225003 | 51 | 4 | 0.0 | 1.0 | 0.00 | 0.00 | 0.00 | 70 | 1016.0 |
| 20260507224004 | 51 | 4 | 1.0 | 2.0 | 0.00 | 0.00 | 0.00 | 65 | 1016.1 |
| 20260507223002 | 51 | 5 | 0.0 | 2.0 | 0.00 | 0.00 | 0.00 | 63 | 1016.1 |
| 20260507222002 | 51 | 306 | 0.0 | 1.0 | 0.00 | 0.00 | 0.00 | 66 | 1016.1 |
| 20260507221003 | 51 | 306 | 0.0 | 3.0 | 0.00 | 0.00 | 0.00 | 66 | 1016.1 |
| 20260507220004 | 52 | 331 | 1.0 | 3.0 | 0.00 | 0.00 | 0.00 | 65 | 1016.1 |
| 20260507215003 | 52 | 329 | 1.0 | 3.0 | 0.00 | 0.01 | 0.00 | 64 | 1016.2 |
| 20260507214002 | 52 | 309 | 1.0 | 3.0 | 0.00 | 0.01 | 0.00 | 66 | 1016.2 |
| 20260507212002 | 52 | 351 | 1.0 | 7.0 | 0.00 | 0.02 | 0.00 | 61 | 1016.2 |
| 20260507211003 | 53 | 352 | 1.0 | 3.0 | 0.00 | 0.03 | 0.00 | 62 | 1016.1 |
| 20260507210002 | 52 | 1 | 2.0 | 6.0 | 0.00 | 0.04 | 0.00 | 61 | 1016.2 |
| 20260507205003 | 51 | 0 | 1.0 | 6.0 | 0.00 | 0.06 | 0.00 | 64 | 1016.1 |
| 20260507204004 | 52 | 356 | 2.0 | 5.0 | 0.00 | 0.09 | 0.00 | 61 | 1016.1 |
| 20260507203003 | 53 | 357 | 1.0 | 3.0 | 0.00 | 0.11 | 0.00 | 61 | 1016.0 |
| 20260507202002 | 53 | 252 | 1.0 | 3.0 | 0.00 | 0.11 | 0.00 | 58 | 1016.1 |
| 20260507201003 | 54 | 265 | 2.0 | 6.0 | 0.00 | 0.11 | 0.00 | 58 | 1016.1 |
| 20260507200003 | 54 | 262 | 2.0 | 8.0 | 0.00 | 0.11 | 0.00 | 56 | 1016.2 |
| 20260507195002 | 54 | 271 | 1.0 | 3.0 | 0.00 | 0.11 | 0.00 | 60 | 1016.3 |
| 20260507194002 | 54 | 277 | 1.0 | 3.0 | 0.00 | 0.11 | 0.00 | 58 | 1016.5 |
| 20260507193003 | 54 | 252 | 1.0 | 3.0 | 0.00 | 0.11 | 0.00 | 59 | 1016.5 |
| 20260507192003 | 54 | 302 | 1.0 | 5.0 | 0.00 | 0.11 | 0.00 | 56 | 1016.7 |
| 20260507191003 | 55 | 333 | 1.0 | 3.0 | 0.00 | 0.11 | 0.00 | 60 | 1016.6 |
| 20260507190004 | 54 | 332 | 1.0 | 3.0 | 0.00 | 0.11 | 0.00 | 60 | 1016.8 |
| 20260507185003 | 55 | 276 | 3.0 | 5.0 | 0.00 | 0.11 | 0.00 | 53 | 1016.8 |
| 20260507184003 | 55 | 301 | 2.0 | 3.0 | 0.00 | 0.11 | 0.00 | 55 | 1016.8 |
| 20260507183003 | 55 | 287 | 1.0 | 3.0 | 0.00 | 0.11 | 0.00 | 56 | 1016.9 |
| 20260507182003 | 56 | 355 | 2.0 | 5.0 | 0.00 | 0.11 | 0.00 | 56 | 1016.8 |
| 20260507181003 | 56 | 299 | 1.0 | 6.0 | 0.00 | 0.11 | 0.00 | 55 | 1016.7 |
| 20260507180003 | 57 | 350 | 3.0 | 6.0 | 0.00 | 0.11 | 0.00 | 54 | 1016.9 |
| 20260507175003 | 57 | 340 | 2.0 | 5.0 | 0.00 | 0.11 | 0.00 | 59 | 1016.9 |
| 20260507174003 | 56 | 332 | 2.0 | 5.0 | 0.00 | 0.11 | 0.00 | 57 | 1017.1 |
| 20260507173004 | 57 | 305 | 1.0 | 3.0 | 0.00 | 0.11 | 0.00 | 61 | 1017.1 |
| 20260507172004 | 56 | 41 | 1.0 | 5.0 | 0.00 | 0.11 | 0.00 | 56 | 1017.1 |
| 20260507171003 | 56 | 209 | 2.0 | 6.0 | 0.00 | 0.11 | 0.00 | 57 | 1017.2 |